Simultaneous Nadir Overpasses (SNOs) Predictions

Prediction of SNOs between TERRA and METOP-C Satellite Orbit:

Table of predicted SNOs for the next 14.0 days since TLE Epoch: 1/28/2023
Index Date (TERRA) Time (TERRA) Lat,Lon (TERRA) SZA (TERRA ) Date (METOP-C) Time (METOP-C) Lat,Lon (METOP-C) SZA (METOP-C ) Distance(km) Time Diff (sec)
1 01/29/2023 10:34:47 -80.93,-123.31 79.85 01/29/2023 10:33:45 -80.92,-123.39 79.88 1.60 62
2 01/29/2023 11:24:09 80.95, 44.63 100.19 01/29/2023 11:24:24 80.96, 44.63 100.20 0.29 15
3 02/01/2023 02:46:17 -80.91, -6.47 80.63 02/01/2023 02:45:27 -80.91, -6.58 80.66 2.04 50
4 02/01/2023 03:35:38 80.96, 161.78 99.45 02/01/2023 03:36:05 80.96, 161.71 99.46 1.06 27
5 02/03/2023 18:57:44 -80.93, 110.87 81.38 02/03/2023 18:57:06 -80.93, 110.88 81.39 0.19 38
6 02/03/2023 19:47:05 80.97, -80.94 98.70 02/03/2023 19:47:44 80.97, -80.90 98.72 0.69 39
7 02/06/2023 11:09:12 -80.93,-132.00 82.18 02/06/2023 11:08:47 -80.93,-132.08 82.20 1.59 25
8 02/06/2023 11:58:33 80.97, 36.15 97.88 02/06/2023 11:59:25 80.96, 36.07 97.89 1.55 52
9 02/09/2023 03:20:39 -80.94, -14.71 83.00 02/09/2023 03:20:27 -80.94, -14.75 83.01 0.83 12



Historial Predications of SNOs between TERRA and METOP-C
